Погода в Комсомольском

Россия / Тверская область     57°39′21″N   33°52′44″E
темп.,
°C
ветер,
м/с
пор.,
м/с
влажн.,
%
обл.,
%
осадки,
мм/ч
давл.,
гПа
погр.,
м
7 марта, вс
вс700:00−5юз71490100 0.6 10021196
03:00−3юз71591100 1.3 9971226
06:00−3юз61494100 1.4 9911134
09:00−4зсз81486100 3.1 9901267
12:00−4з7154867 0.1 9912700
15:00−4з6116362 0.3 9911722
18:00−6з41069100 0.2 991895
21:00−8з4118183 0.2 991704
8 марта, пн
пн800:00−8з61291100 0.3 9921005
03:00−8сз61089100 1.1 994789
06:00−10ссз41192100 0.1 997512
09:00−9ссз598799 0.2 1001751
12:00−8ссз4780100 0.1 1004814
15:00−8ссз5780100 0.2 1007887
18:00−10ссз4885100 0.1 1010830
21:00−12ссз3892100 0.2 1013490
9 марта, вт
вт900:00−14с3796100 0.0 1015312
03:00−17ссз259793 0.1 1017195
06:00−19ссз259775 0.0 1018227
09:00−18с239071 0.0 1020259
12:00−14с237068 0.0 1021564
15:00−11с236434 0.0 1021813
18:00−14ссв23810 0.0 102289
21:00−17в24930 0.0 1024100
10 марта, ср
ср1000:00−18вюв269464 0.0 1025183
03:00−19вюв259471 0.0 1026151
06:00−20вюв24931 0.0 1026125
09:00−18вюв24820 0.0 1027194
12:00−13в35680 0.0 1027347
15:00−9в35617 0.0 1027617
18:00−12в257969 0.0 1027127
21:00−15вюв259069 0.0 1028112
11 марта, чт
чт1100:00−17вюв239256 0.0 102875
03:00−17вюв269250 0.0 1028141
06:00−18юв37906 0.0 1027200
09:00−15юв49788 0.0 1027277
12:00−10юв5106390 0.0 1024577
15:00−8ююв5107993 0.0 1022635
18:00−8ююв41088100 0.1 1020602
21:00−9ююв41292100 0.1 1019494